Overview Statistics Trail Chart Weather Telemetry Raw packets
 

This is the latest recevied weather packets stored in our database for station/object IW2NIA-3. If no packets are shown the sender has not sent any weather packets the latest 10 day(s).

<< 13 14 15 16 17 18 19 >>
Time Temp. Humidity Pressure Rain* Wind** Luminosity Snow
1788338020 25° C 69% 1019.2 hPa 0 mm - - -
1788337120 25° C 70% 1019.3 hPa 0 mm - - -
1788336215 25° C 72% 1019.2 hPa 0 mm - - -
1788335309 25° C 73% 1019 hPa 0 mm - - -
1788334428 24.44° C 74% 1019.2 hPa 0 mm - - -
1788333524 24.44° C 76% 1019.1 hPa 0 mm - - -
1788332623 23.89° C 77% 1018.9 hPa 0 mm - - -
1788331721 23.33° C 78% 1018.8 hPa 0 mm - - -
1788330816 22.78° C 80% 1018.7 hPa 0 mm - - -
1788329911 22.22° C 81% 1018.7 hPa 0 mm - - -
1788329025 21.67° C 84% 1018.7 hPa 0 mm - - -
1788328122 21.11° C 85% 1018.4 hPa 0 mm - - -
1788327212 20.56° C 86% 1018.5 hPa 0 mm - - -
1788326327 20.56° C 86% 1018.3 hPa 0 mm - - -
1788325423 20.56° C 86% 1018.3 hPa 0 mm - - -
1788324528 20.56° C 86% 1018.3 hPa 0 mm - - -
1788323618 20.56° C 85% 1018.3 hPa 0 mm - - -
1788322712 20.56° C 85% 1018 hPa 0 mm - - -
1788321829 20.56° C 86% 1017.9 hPa 0 mm - - -
1788320921 20.56° C 85% 1017.9 hPa 0 mm - - -
1788320011 20.56° C 85% 1018.1 hPa 0 mm - - -
1788319123 20.56° C 85% 1018.1 hPa 0 mm - - -
1788318217 20.56° C 84% 1018.2 hPa 0 mm - - -
1788317316 21.11° C 84% 1018.1 hPa 0 mm - - -
1788316411 21.11° C 84% 1018.1 hPa 0 mm - - -

* Rain latest hour (hover to see other rain measurements)
** Current wind speed in m/s (hover to see current wind gust speed)